FW8519 Weather Reports


Display with metric or nautical units.
time (UTC)temp
F
wind
direction
speed
MPH
gust
MPH
rain 1hr
in
rain 24hr
in
rain mn
in
humidity
%
barometer
mb
20260508153516 57 270 7.0 15.0 0.00 0.00 0.00 48 1015.7
20260508153016 57 248 7.0 13.0 0.00 0.00 0.00 46 1015.8
20260508152516 58 293 9.0 16.0 0.00 0.00 0.00 46 1015.8
20260508152015 58 270 8.0 17.0 0.00 0.00 0.00 47 1015.7
20260508151516 58 270 8.0 11.0 0.00 0.00 0.00 50 1015.7
20260508151035 58 270 11.0 17.0 0.00 0.00 0.00 50 1015.6
20260508150515 57 293 8.0 12.0 0.00 0.00 0.00 48 1015.6
20260508150016 57 293 9.0 15.0 0.00 0.00 0.00 48 1015.6
20260508145515 57 270 12.0 17.0 0.00 0.00 0.00 52 1015.6
20260508145036 57 293 12.0 17.0 0.00 0.00 0.00 50 1015.5
20260508144516 57 270 11.0 17.0 0.00 0.00 0.00 50 1015.5
20260508144056 57 270 11.0 16.0 0.00 0.00 0.00 51 1015.5
20260508143516 57 293 10.0 18.0 0.00 0.00 0.00 50 1015.5
20260508143016 57 293 13.0 20.0 0.00 0.00 0.00 52 1015.5
20260508142515 57 293 13.0 20.0 0.00 0.00 0.00 53 1015.5
20260508142015 56 293 7.0 12.0 0.00 0.00 0.00 52 1015.5
20260508141515 57 293 12.0 19.0 0.00 0.00 0.00 54 1015.5
20260508141015 57 293 14.0 20.0 0.00 0.00 0.00 54 1015.4
20260508140516 56 293 9.0 14.0 0.00 0.00 0.00 54 1015.4
20260508140015 56 293 13.0 17.0 0.00 0.00 0.00 57 1015.4
20260508135516 56 270 11.0 16.0 0.00 0.00 0.00 54 1015.3
20260508135016 57 293 11.0 15.0 0.00 0.00 0.00 53 1015.3
20260508134535 56 293 12.0 17.0 0.00 0.00 0.00 56 1015.3
20260508134016 56 293 13.0 16.0 0.00 0.00 0.00 57 1015.2
20260508133516 56 270 10.0 18.0 0.00 0.01 0.00 55 1015.1
20260508133015 56 270 11.0 17.0 0.00 0.01 0.00 56 1015.2
20260508132516 56 248 11.0 17.0 0.00 0.01 0.00 55 1015.2
20260508132015 56 248 10.0 16.0 0.00 0.01 0.00 58 1015.3
20260508131516 56 248 9.0 17.0 0.00 0.01 0.00 54 1015.2
20260508131036 56 248 14.0 20.0 0.00 0.01 0.00 58 1015.2
20260508130535 56 248 15.0 19.0 0.00 0.01 0.00 61 1015.2
20260508130036 57 225 14.0 19.0 0.00 0.01 0.00 58 1015.1
20260508125515 56 225 14.0 18.0 0.00 0.01 0.00 56 1015.1
20260508125015 56 225 13.0 19.0 0.00 0.01 0.00 61 1015.2
20260508124515 55 225 13.0 17.0 0.00 0.01 0.00 63 1015.1
20260508124015 55 248 15.0 19.0 0.00 0.01 0.00 62 1015.0
20260508123515 55 248 15.0 21.0 0.00 0.01 0.00 62 1014.9
20260508123015 55 248 14.0 20.0 0.00 0.01 0.00 63 1015.0
20260508122536 55 270 8.0 11.0 0.00 0.01 0.00 62 1015.0
20260508122015 55 293 8.0 13.0 0.00 0.01 0.00 62 1015.0
20260508121535 55 270 9.0 16.0 0.00 0.01 0.00 61 1015.0
20260508121015 56 248 12.0 19.0 0.00 0.01 0.00 60 1014.9
20260508120515 56 225 13.0 16.0 0.00 0.01 0.00 61 1014.9
20260508120016 56 225 13.0 18.0 0.00 0.01 0.00 57 1014.9
20260508115515 55 248 11.0 16.0 0.00 0.01 0.00 62 1014.9
20260508115035 55 270 11.0 18.0 0.00 0.01 0.00 61 1014.9
20260508114515 54 270 11.0 15.0 0.00 0.01 0.00 61 1014.8
20260508114035 54 270 11.0 16.0 0.00 0.01 0.00 63 1014.9
20260508113515 54 248 12.0 17.0 0.00 0.01 0.00 62 1014.9
20260508113015 54 270 13.0 17.0 0.00 0.01 0.00 63 1014.8
20260508112515 54 270 12.0 19.0 0.00 0.01 0.00 66 1014.8
20260508112015 53 293 8.0 13.0 0.00 0.01 0.00 63 1014.7
20260508111515 54 270 9.0 14.0 0.00 0.01 0.00 65 1014.8
20260508111035 54 270 12.0 16.0 0.00 0.01 0.00 68 1014.8
20260508110515 53 270 12.0 18.0 0.00 0.01 0.00 64 1014.6
20260508110015 53 270 13.0 17.0 0.00 0.01 0.00 63 1014.7
20260508105515 53 270 10.0 14.0 0.00 0.01 0.00 68 1014.7
20260508105035 54 293 10.0 19.0 0.00 0.01 0.00 65 1014.6
20260508104515 54 248 12.0 17.0 0.00 0.01 0.00 64 1014.6
20260508104015 54 225 14.0 19.0 0.00 0.01 0.00 63 1014.6
20260508103515 54 248 12.0 17.0 0.00 0.01 0.00 63 1014.6
20260508103015 54 225 13.0 17.0 0.00 0.01 0.00 61 1014.6
20260508102515 53 225 14.0 21.0 0.00 0.01 0.00 64 1014.6
20260508102015 53 248 10.0 16.0 0.00 0.01 0.00 64 1014.5
20260508101515 52 270 11.0 17.0 0.00 0.01 0.00 65 1014.4
20260508101015 52 270 12.0 16.0 0.00 0.01 0.00 65 1014.5
20260508100515 52 248 12.0 22.0 0.00 0.01 0.00 68 1014.4
20260508100035 52 270 12.0 19.0 0.00 0.01 0.00 65 1014.4
20260508095515 52 270 11.0 15.0 0.00 0.01 0.00 69 1014.4
20260508095015 52 248 8.0 15.0 0.00 0.01 0.00 74 1014.4
20260508094515 51 270 9.0 13.0 0.00 0.01 0.00 72 1014.4
20260508094015 51 270 7.0 9.0 0.00 0.01 0.00 74 1014.4
20260508093515 51 270 8.0 13.0 0.00 0.01 0.00 73 1014.5
20260508093015 51 270 9.0 13.0 0.00 0.01 0.00 74 1014.4
20260508092555 51 270 8.0 12.0 0.00 0.01 0.00 72 1014.4
20260508092015 51 248 9.0 12.0 0.00 0.01 0.00 72 1014.4
20260508091515 51 248 11.0 17.0 0.00 0.01 0.00 72 1014.4
20260508091017 51 248 9.0 13.0 0.00 0.01 0.00 73 1014.4
20260508090517 51 225 12.0 16.0 0.00 0.01 0.00 72 1014.3
20260508090017 51 225 11.0 16.0 0.00 0.01 0.00 75 1014.3
20260508085537 51 248 11.0 15.0 0.00 0.01 0.00 77 1014.3
20260508085017 51 225 12.0 17.0 0.00 0.01 0.00 73 1014.3
20260508084517 50 225 12.0 16.0 0.00 0.01 0.00 75 1014.3
20260508084017 50 225 12.0 15.0 0.00 0.01 0.00 75 1014.3
20260508083517 50 248 11.0 15.0 0.00 0.01 0.00 76 1014.2
20260508083017 50 248 11.0 15.0 0.00 0.01 0.00 75 1014.2
20260508082517 50 225 11.0 15.0 0.00 0.01 0.00 74 1014.2
20260508082017 50 248 11.0 13.0 0.00 0.01 0.00 76 1014.1
20260508081517 50 248 12.0 17.0 0.00 0.01 0.00 73 1014.1
20260508081017 50 248 10.0 14.0 0.00 0.01 0.00 77 1014.1
20260508080517 49 248 11.0 13.0 0.00 0.01 0.00 76 1014.0
20260508080015 49 248 12.0 16.0 0.00 0.01 0.00 77 1014.0
20260508075517 49 248 10.0 13.0 0.00 0.01 0.00 80 1014.0
20260508075017 49 248 9.0 14.0 0.00 0.01 0.00 82 1014.0
20260508074517 49 248 10.0 12.0 0.00 0.01 0.00 84 1013.9
20260508074017 48 248 8.0 11.0 0.00 0.01 0.00 83 1013.9
20260508073517 48 248 9.0 12.0 0.00 0.01 0.00 84 1013.8
20260508073017 48 248 9.0 12.0 0.00 0.01 0.00 85 1013.9
20260508072537 48 248 8.0 11.0 0.00 0.01 0.00 86 1013.8
20260508072017 48 225 7.0 8.0 0.00 0.01 0.00 87 1013.8
20260508071537 48 225 7.0 9.0 0.00 0.01 0.00 86 1013.8
20260508071017 48 225 8.0 9.0 0.00 0.01 0.00 86 1013.7
20260508070517 48 225 6.0 8.0 0.00 0.01 0.00 87 1013.6
20260508070037 48 225 6.0 8.0 0.00 0.01 0.00 88 1013.6
20260508065517 48 225 7.0 10.0 0.00 0.01 0.00 87 1013.6
20260508065017 48 225 8.0 10.0 0.00 0.01 0.00 88 1013.4
20260508064537 47 225 7.0 9.0 0.00 0.01 0.00 88 1013.3
20260508064017 47 225 6.0 8.0 0.00 0.01 0.00 88 1013.3
20260508063517 47 225 6.0 10.0 0.00 0.01 0.00 88 1013.2
20260508063017 47 225 6.0 9.0 0.00 0.01 0.00 88 1013.2
20260508062517 47 270 5.0 8.0 0.00 0.01 0.00 88 1013.2
20260508062017 47 248 5.0 7.0 0.00 0.01 0.00 89 1013.2
20260508061537 47 248 6.0 7.0 0.00 0.01 0.00 89 1013.1
20260508061017 46 248 6.0 8.0 0.00 0.01 0.00 89 1013.1
20260508060516 46 248 5.0 8.0 0.00 0.01 0.00 89 1012.9
20260508060017 46 248 8.0 10.0 0.00 0.01 0.00 89 1012.9
20260508055517 46 248 9.0 12.0 0.00 0.01 0.00 90 1012.8
20260508055017 46 248 10.0 12.0 0.00 0.01 0.00 90 1012.8
20260508054516 45 248 9.0 11.0 0.00 0.01 0.00 90 1012.8
20260508054017 45 248 9.0 11.0 0.00 0.01 0.00 90 1012.8
20260508053537 45 225 8.0 11.0 0.00 0.01 0.00 90 1012.7
20260508053037 45 225 9.0 12.0 0.00 0.01 0.00 90 1012.7
20260508052517 46 225 9.0 12.0 0.00 0.01 0.00 90 1012.5
20260508052017 45 225 9.0 11.0 0.00 0.01 0.00 90 1012.5
20260508051516 45 225 8.0 11.0 0.00 0.01 0.00 90 1012.4
20260508051016 45 225 7.0 9.0 0.00 0.01 0.00 90 1012.4
20260508050517 45 225 7.0 8.0 0.00 0.01 0.00 90 1012.4
20260508050017 45 225 6.0 7.0 0.00 0.01 0.00 90 1012.4
20260508045536 45 248 6.0 9.0 0.00 0.01 0.00 90 1012.4
20260508045017 45 248 6.0 7.0 0.00 0.01 0.00 90 1012.4
20260508044517 45 225 5.0 6.0 0.00 0.01 0.00 90 1012.2
20260508044017 45 225 4.0 5.0 0.00 0.01 0.00 90 1012.2
20260508043517 45 248 5.0 8.0 0.00 0.01 0.00 90 1012.2
20260508043017 45 248 4.0 6.0 0.00 0.01 0.00 90 1012.2
20260508042517 45 248 3.0 4.0 0.00 0.01 0.00 90 1012.2
20260508042016 45 248 3.0 4.0 0.00 0.01 0.00 90 1012.2
20260508041516 45 248 3.0 4.0 0.00 0.01 0.00 90 1012.2
20260508041016 46 248 3.0 4.0 0.00 0.01 0.00 90 1012.1
20260508040516 46 225 2.0 4.0 0.00 0.01 0.00 90 1012.0
20260508040016 46 248 3.0 3.0 0.00 0.01 0.00 90 1012.1
20260508035537 46 248 3.0 5.0 0.00 0.01 0.00 89 1011.9
20260508035036 46 248 4.0 6.0 0.00 0.01 0.00 89 1011.9
20260508034517 46 248 6.0 9.0 0.00 0.01 0.00 89 1011.9
20260508034016 46 248 6.0 10.0 0.00 0.01 0.00 89 1011.9
20260508033516 46 248 6.0 9.0 0.00 0.01 0.00 89 1011.9
20260508033016 46 248 7.0 12.0 0.00 0.01 0.00 89 1011.9
20260508032016 46 248 9.0 12.0 0.00 0.01 0.00 89 1011.9
20260508031516 46 248 8.0 12.0 0.00 0.01 0.00 89 1011.8
20260508031036 46 248 9.0 13.0 0.00 0.01 0.00 89 1011.9
20260508030536 46 248 9.0 11.0 0.00 0.01 0.00 89 1011.8
20260508030016 46 248 10.0 12.0 0.00 0.01 0.00 89 1011.7
20260508025516 46 248 11.0 13.0 0.00 0.01 0.00 89 1011.7
20260508025016 46 248 10.0 13.0 0.00 0.01 0.00 89 1011.6
20260508024516 46 248 11.0 14.0 0.00 0.01 0.00 89 1011.7
20260508024016 46 270 9.0 12.0 0.00 0.01 0.00 89 1011.7
20260508023520 46 248 11.0 14.0 0.00 0.01 0.00 89 1011.6
20260508023016 46 248 12.0 16.0 0.00 0.01 0.00 89 1011.6
20260508022516 46 248 11.0 14.0 0.00 0.01 0.00 89 1011.6
20260508022016 46 248 11.0 14.0 0.00 0.01 0.00 89 1011.6
20260508021517 46 248 10.0 15.0 0.00 0.01 0.00 89 1011.6
20260508021016 46 248 11.0 15.0 0.00 0.01 0.00 89 1011.6
20260508020516 46 248 11.0 15.0 0.00 0.01 0.00 89 1011.5
20260508020016 46 248 11.0 15.0 0.00 0.01 0.00 89 1011.4
20260508015516 46 248 11.0 14.0 0.00 0.01 0.00 88 1011.4
20260508015016 46 248 13.0 16.0 0.00 0.01 0.00 88 1011.5
20260508014516 46 248 13.0 17.0 0.00 0.01 0.00 88 1011.5
20260508014016 46 248 13.0 15.0 0.00 0.01 0.00 88 1011.4
20260508013516 46 248 12.0 15.0 0.00 0.01 0.00 87 1011.5
20260508013016 47 248 13.0 16.0 0.00 0.01 0.00 86 1011.5
20260508012516 47 248 13.0 19.0 0.00 0.01 0.00 85 1011.5
20260508012016 47 248 15.0 18.0 0.00 0.01 0.00 85 1011.5
20260508011536 47 248 15.0 20.0 0.00 0.01 0.00 85 1011.4
20260508011016 48 248 14.0 18.0 0.00 0.01 0.00 84 1011.4
20260508010516 48 248 13.0 16.0 0.00 0.01 0.00 82 1011.5
20260508010036 48 248 12.0 16.0 0.00 0.01 0.00 82 1011.5
20260508005516 48 248 10.0 15.0 0.00 0.01 0.00 82 1011.6
20260508005016 48 225 9.0 13.0 0.00 0.01 0.00 82 1011.6
20260508004516 48 225 9.0 13.0 0.00 0.01 0.00 82 1011.6
20260508004016 48 225 7.0 11.0 0.00 0.01 0.00 82 1011.6
20260508003536 48 248 9.0 14.0 0.00 0.01 0.00 82 1011.6
20260508003036 48 225 8.0 11.0 0.00 0.01 0.00 82 1011.6
20260508002516 48 225 10.0 13.0 0.00 0.01 0.00 82 1011.6
20260508002016 48 248 11.0 14.0 0.00 0.01 0.00 81 1011.5
20260508001516 48 248 10.0 14.0 0.00 0.01 0.00 82 1011.5
20260508001016 48 248 8.0 12.0 0.00 0.01 0.00 82 1011.6
20260508000516 48 248 6.0 11.0 0.00 0.01 0.00 82 1011.6
20260508000016 48 248 6.0 9.0 0.00 0.01 0.01 82 1011.5
20260507235516 48 248 7.0 10.0 0.00 0.01 0.01 82 1011.5
20260507235037 48 248 8.0 11.0 0.00 0.01 0.01 82 1011.5
20260507234536 48 248 7.0 9.0 0.00 0.01 0.01 82 1011.5
20260507234016 48 248 11.0 14.0 0.00 0.01 0.01 81 1011.5
20260507233516 48 248 10.0 14.0 0.00 0.01 0.01 82 1011.5
20260507233016 48 248 10.0 13.0 0.00 0.01 0.01 82 1011.5
20260507232516 48 248 11.0 14.0 0.00 0.01 0.01 81 1011.5
20260507232016 48 225 9.0 13.0 0.00 0.01 0.01 81 1011.5
20260507231516 49 248 9.0 14.0 0.00 0.01 0.01 81 1011.4
20260507231016 49 225 11.0 15.0 0.00 0.01 0.01 81 1011.5
20260507230517 49 248 9.0 13.0 0.00 0.01 0.01 81 1011.5
20260507230016 49 248 10.0 15.0 0.00 0.01 0.01 81 1011.5
20260507225516 49 248 10.0 18.0 0.00 0.01 0.01 81 1011.4
20260507225036 49 225 9.0 13.0 0.00 0.01 0.01 81 1011.5
20260507224537 49 248 9.0 12.0 0.00 0.01 0.01 81 1011.5
20260507224016 49 225 8.0 11.0 0.00 0.01 0.01 81 1011.5
20260507223536 49 225 7.0 10.0 0.00 0.01 0.01 81 1011.5
20260507223016 49 225 8.0 12.0 0.00 0.01 0.01 81 1011.5
20260507222516 49 225 7.0 10.0 0.00 0.01 0.01 81 1011.5
20260507222016 49 248 6.0 9.0 0.00 0.01 0.01 81 1011.4
20260507221516 49 248 6.0 8.0 0.00 0.01 0.01 81 1011.5
20260507221017 49 248 5.0 7.0 0.00 0.01 0.01 81 1011.5
20260507220516 49 248 6.0 8.0 0.00 0.01 0.01 80 1011.6
20260507220016 49 248 6.0 8.0 0.00 0.01 0.01 80 1011.5
20260507215516 49 248 7.0 8.0 0.00 0.01 0.01 79 1011.5
20260507215016 49 248 8.0 10.0 0.00 0.01 0.01 79 1011.5
20260507214536 49 248 8.0 11.0 0.00 0.01 0.01 78 1011.5
20260507214016 49 248 9.0 11.0 0.00 0.01 0.01 78 1011.5
20260507213516 49 248 9.0 11.0 0.00 0.01 0.01 77 1011.4
20260507213016 49 248 9.0 11.0 0.00 0.01 0.01 76 1011.4
20260507212536 49 248 6.0 9.0 0.00 0.01 0.01 76 1011.5
20260507212016 49 225 6.0 7.0 0.00 0.01 0.01 75 1011.4
20260507211516 49 225 7.0 9.0 0.00 0.01 0.01 74 1011.5
20260507211016 50 225 8.0 11.0 0.00 0.01 0.01 72 1011.4
20260507210516 50 203 9.0 12.0 0.00 0.01 0.01 71 1011.3
20260507210016 50 203 9.0 13.0 0.00 0.01 0.01 71 1011.4
20260507205516 50 203 9.0 12.0 0.00 0.01 0.01 71 1011.3
20260507205016 50 203 8.0 10.0 0.00 0.01 0.01 72 1011.2
20260507204516 50 203 8.0 12.0 0.00 0.01 0.01 72 1011.3
20260507204016 50 225 8.0 12.0 0.00 0.01 0.01 72 1011.4
20260507203516 50 225 7.0 10.0 0.00 0.01 0.01 71 1011.3
20260507203036 50 203 7.0 10.0 0.00 0.01 0.01 71 1011.2
20260507202536 50 203 7.0 11.0 0.00 0.01 0.01 72 1011.2
20260507202016 50 225 9.0 11.0 0.00 0.01 0.01 72 1011.1
20260507201516 50 225 9.0 12.0 0.00 0.01 0.01 72 1011.1
20260507201016 50 225 9.0 12.0 0.00 0.01 0.01 72 1011.1
20260507200516 50 225 9.0 10.0 0.00 0.01 0.01 72 1011.0
20260507200036 50 225 10.0 12.0 0.00 0.01 0.01 72 1010.9
20260507195516 51 225 10.0 12.0 0.00 0.01 0.01 70 1011.0
20260507195056 51 225 9.0 11.0 0.00 0.01 0.01 71 1011.0
20260507194516 51 248 8.0 10.0 0.00 0.01 0.01 71 1011.0
20260507194016 51 248 7.0 8.0 0.00 0.01 0.01 72 1010.9
20260507193516 51 248 7.0 11.0 0.00 0.01 0.01 72 1010.8
20260507193016 51 248 8.0 10.0 0.00 0.01 0.01 70 1010.9
20260507192516 51 248 9.0 11.0 0.00 0.01 0.01 70 1010.8
20260507192016 51 248 10.0 13.0 0.00 0.01 0.01 69 1010.7
20260507191516 51 248 9.0 12.0 0.00 0.01 0.01 69 1010.7
20260507191016 52 248 10.0 12.0 0.00 0.01 0.01 68 1010.7
20260507190516 52 248 13.0 16.0 0.00 0.01 0.01 68 1010.7
20260507190016 52 248 11.0 13.0 0.00 0.01 0.01 70 1010.7
20260507185516 52 248 11.0 16.0 0.00 0.01 0.01 70 1010.7
20260507185016 52 248 12.0 16.0 0.00 0.01 0.01 70 1010.7
20260507184516 52 248 11.0 14.0 0.00 0.01 0.01 71 1010.7
20260507184016 52 248 13.0 17.0 0.00 0.01 0.01 70 1010.7
20260507183516 52 225 12.0 16.0 0.00 0.01 0.01 70 1010.7
20260507183016 52 225 12.0 15.0 0.00 0.01 0.01 70 1010.7
20260507182516 53 225 11.0 15.0 0.00 0.01 0.01 70 1010.7
20260507182016 53 248 12.0 16.0 0.00 0.01 0.01 71 1010.7
20260507181516 53 248 12.0 18.0 0.00 0.01 0.01 72 1010.5
20260507181016 53 225 11.0 13.0 0.00 0.01 0.01 71 1010.7
20260507180516 53 225 12.0 15.0 0.00 0.01 0.01 72 1010.5
20260507180016 53 248 14.0 18.0 0.00 0.01 0.01 72 1010.5
20260507175516 53 225 12.0 18.0 0.00 0.01 0.01 72 1010.5
20260507175016 53 248 12.0 19.0 0.00 0.01 0.01 72 1010.5
20260507174516 53 225 14.0 19.0 0.00 0.01 0.01 72 1010.5
20260507174016 53 225 14.0 18.0 0.00 0.01 0.01 72 1010.5
20260507173536 53 225 14.0 17.0 0.00 0.01 0.01 72 1010.4
20260507173016 53 225 11.0 14.0 0.00 0.01 0.01 73 1010.4
20260507172516 53 225 12.0 16.0 0.00 0.01 0.01 73 1010.5
20260507172016 53 225 14.0 19.0 0.00 0.01 0.01 72 1010.5
20260507171516 53 225 15.0 20.0 0.00 0.01 0.01 72 1010.3
20260507171016 54 225 14.0 18.0 0.00 0.01 0.01 72 1010.4
20260507170516 54 225 13.0 16.0 0.00 0.01 0.01 72 1010.4
20260507170016 54 225 13.0 21.0 0.00 0.01 0.01 72 1010.5
20260507165516 54 225 14.0 18.0 0.00 0.01 0.01 74 1010.4
20260507165016 53 225 13.0 19.0 0.00 0.01 0.01 73 1010.5
20260507164516 53 225 12.0 16.0 0.00 0.01 0.01 73 1010.5
20260507164016 52 225 11.0 16.0 0.00 0.01 0.01 73 1010.5
20260507163516 52 225 12.0 16.0 0.00 0.01 0.01 75 1010.5
20260507163016 52 225 12.0 16.0 0.00 0.01 0.01 77 1010.6
20260507162516 52 225 9.0 18.0 0.00 0.01 0.01 77 1010.6
20260507162016 52 225 9.0 13.0 0.00 0.01 0.01 79 1010.7
20260507161516 52 225 8.0 12.0 0.00 0.01 0.01 79 1010.7
20260507161035 51 225 7.0 10.0 0.00 0.01 0.01 81 1010.9
20260507160515 51 225 6.0 11.0 0.00 0.01 0.01 81 1010.9
20260507160016 51 225 9.0 15.0 0.00 0.01 0.01 80 1010.9
20260507155516 51 225 8.0 11.0 0.00 0.01 0.01 81 1010.9
20260507155015 50 225 9.0 12.0 0.00 0.01 0.01 80 1010.9
20260507154516 50 225 9.0 13.0 0.00 0.01 0.01 81 1010.9
20260507154015 50 203 3.0 6.0 0.00 0.01 0.01 83 1011.0